DW9313 Weather Reports


Display with metric or nautical units.
time (UTC)temp
F
wind
direction
speed
MPH
gust
MPH
rain 1hr
in
rain 24hr
in
rain mn
in
humidity
%
barometer
mb
20220125115735 45 98 0.0 0.0 0.00 0.00 0.00 84 1033.2
20220125115235 45 100 0.0 2.0 0.00 0.00 0.00 83 1033.2
20220125114735 45 102 0.0 5.0 0.00 0.00 0.00 84 1033.2
20220125114236 45 82 0.0 5.0 0.00 0.00 0.00 84 1033.3
20220125113735 45 93 0.0 0.0 0.00 0.00 0.00 84 1033.3
20220125113235 45 86 0.0 0.0 0.00 0.00 0.00 84 1033.3
20220125112736 45 99 0.0 0.0 0.00 0.00 0.00 84 1033.3
20220125112236 45 104 0.0 0.0 0.00 0.00 0.00 83 1033.2
20220125111736 45 103 0.0 0.0 0.00 0.00 0.00 84 1033.3
20220125111236 45 92 0.0 0.0 0.00 0.00 0.00 84 1033.3
20220125110736 45 90 0.0 0.0 0.00 0.00 0.00 84 1033.3
20220125110236 45 98 0.0 0.0 0.00 0.00 0.00 84 1033.3
20220125105736 45 258 0.0 0.0 0.00 0.00 0.00 84 1033.3
20220125105237 45 95 0.0 0.0 0.00 0.00 0.00 84 1033.2
20220125104736 45 97 0.0 0.0 0.00 0.00 0.00 84 1033.2
20220125104237 44 97 0.0 0.0 0.00 0.00 0.00 84 1033.1
20220125103737 44 97 0.0 0.0 0.00 0.00 0.00 84 1033.1
20220125103236 44 97 0.0 0.0 0.00 0.00 0.00 84 1033.1
20220125102737 44 95 0.0 0.0 0.00 0.00 0.00 84 1033.1
20220125102236 44 96 0.0 0.0 0.00 0.00 0.00 84 1033.1
20220125101736 44 96 0.0 0.0 0.00 0.00 0.00 84 1033.0
20220125101236 44 100 0.0 1.0 0.00 0.00 0.00 84 1033.0
20220125100736 44 87 0.0 0.0 0.00 0.00 0.00 84 1033.0
20220125100236 44 83 0.0 2.0 0.00 0.00 0.00 83 1033.0
20220125095736 44 83 0.0 2.0 0.00 0.00 0.00 84 1033.0
20220125095237 44 88 0.0 0.0 0.00 0.00 0.00 84 1033.0
20220125094736 44 93 0.0 0.0 0.00 0.00 0.00 84 1033.0
20220125094236 44 101 0.0 0.0 0.00 0.00 0.00 84 1032.9
20220125093737 44 98 0.0 2.0 0.00 0.00 0.00 84 1033.0
20220125093236 44 92 0.0 0.0 0.00 0.00 0.00 84 1033.0
20220125092736 44 91 0.0 0.0 0.00 0.00 0.00 84 1032.9
20220125092236 44 93 0.0 0.0 0.00 0.00 0.00 84 1032.9
20220125091737 44 93 0.0 0.0 0.00 0.00 0.00 84 1032.9
20220125091238 44 95 0.0 0.0 0.00 0.00 0.00 84 1032.8
20220125090737 44 95 0.0 0.0 0.00 0.00 0.00 84 1032.8
20220125090237 44 95 0.0 0.0 0.00 0.00 0.00 84 1032.8
20220125085736 44 95 0.0 0.0 0.00 0.00 0.00 84 1032.7
20220125085236 44 97 0.0 0.0 0.00 0.00 0.00 84 1032.7
20220125084738 44 97 0.0 0.0 0.00 0.00 0.00 84 1032.7
20220125084236 44 96 0.0 0.0 0.00 0.00 0.00 84 1032.7
20220125083736 44 96 0.0 0.0 0.00 0.00 0.00 84 1032.7
20220125083237 44 89 0.0 0.0 0.00 0.00 0.00 84 1032.6
20220125082737 44 74 0.0 0.0 0.00 0.00 0.00 84 1032.5
20220125082239 44 96 0.0 0.0 0.00 0.00 0.00 84 1032.4
20220125081738 44 105 0.0 0.0 0.00 0.00 0.00 84 1032.3
20220125081237 44 90 0.0 5.0 0.00 0.00 0.00 84 1032.3
20220125080738 44 98 1.0 3.0 0.00 0.00 0.00 84 1032.3
20220125080237 44 105 0.0 0.0 0.00 0.00 0.00 84 1032.3
20220125075237 44 100 0.0 0.0 0.00 0.00 0.00 85 1032.2
20220125074737 44 86 0.0 0.0 0.00 0.00 0.00 85 1032.2
20220125074239 44 81 0.0 0.0 0.00 0.00 0.00 85 1032.1
20220125073738 44 104 0.0 0.0 0.00 0.00 0.00 85 1032.1
20220125073237 44 104 0.0 0.0 0.00 0.00 0.00 85 1032.1
20220125072738 44 104 0.0 0.0 0.00 0.00 0.00 85 1032.0
20220125072237 44 92 0.0 0.0 0.00 0.00 0.00 85 1032.0
20220125071737 44 90 0.0 0.0 0.00 0.00 0.00 85 1032.0
20220125071239 44 91 0.0 0.0 0.00 0.00 0.00 84 1032.0
20220125070737 44 95 0.0 0.0 0.00 0.00 0.00 84 1032.0
20220125070237 44 88 0.0 0.0 0.00 0.00 0.00 84 1032.0
20220125065739 44 95 0.0 0.0 0.00 0.00 0.00 84 1032.0
20220125065238 44 96 0.0 0.0 0.00 0.00 0.00 84 1031.9
20220125064738 44 97 0.0 0.0 0.00 0.00 0.00 83 1032.0
20220125064238 44 96 0.0 0.0 0.00 0.00 0.00 84 1032.0
20220125063739 44 33 0.0 0.0 0.00 0.00 0.00 83 1032.0
20220125063238 44 7 0.0 0.0 0.00 0.00 0.00 83 1032.0
20220125062739 44 7 0.0 0.0 0.00 0.00 0.00 83 1032.0
20220125062239 44 7 0.0 0.0 0.00 0.00 0.00 83 1032.0
20220125061738 44 7 0.0 0.0 0.00 0.00 0.00 83 1032.0
20220125061239 44 28 0.0 0.0 0.00 0.00 0.00 83 1032.0
20220125060738 44 78 0.0 0.0 0.00 0.00 0.00 83 1031.9
20220125055738 44 94 0.0 0.0 0.00 0.00 0.00 82 1032.0
20220125055239 44 94 0.0 0.0 0.00 0.00 0.00 82 1032.0
20220125054738 45 94 0.0 0.0 0.00 0.00 0.00 82 1032.0
20220125054238 45 94 0.0 0.0 0.00 0.00 0.00 82 1032.0
20220125053738 45 94 0.0 0.0 0.00 0.00 0.00 82 1032.0
20220125053238 45 94 0.0 0.0 0.00 0.00 0.00 82 1032.0
20220125052739 45 94 0.0 0.0 0.00 0.00 0.00 82 1032.0
20220125052239 45 94 0.0 0.0 0.00 0.00 0.00 82 1032.0
20220125051741 45 105 1.0 5.0 0.00 0.00 0.00 81 1031.9
20220125051238 45 85 0.0 0.0 0.00 0.00 0.00 81 1031.8
20220125050739 45 129 1.0 5.0 0.00 0.00 0.00 81 1031.8
20220125050240 45 173 0.0 0.0 0.00 0.00 0.00 81 1031.8
20220125045740 45 176 0.0 0.0 0.00 0.00 0.00 81 1031.8
20220125045238 45 178 0.0 0.0 0.00 0.00 0.00 81 1031.9
20220125044739 45 178 0.0 0.0 0.00 0.00 0.00 81 1031.9
20220125044239 45 178 0.0 0.0 0.00 0.00 0.00 81 1031.9
20220125043738 45 178 0.0 0.0 0.00 0.00 0.00 81 1031.8
20220125043238 45 225 4.0 7.0 0.00 0.00 0.00 82 1031.9
20220125042739 45 225 0.0 6.0 0.00 0.00 0.00 83 1031.9
20220125042238 45 202 0.0 0.0 0.00 0.00 0.00 83 1031.9
20220125041740 45 238 0.0 0.0 0.00 0.00 0.00 83 1031.9
20220125041239 45 239 0.0 0.0 0.00 0.00 0.00 83 1031.9
20220125040741 45 278 0.0 0.0 0.00 0.00 0.00 84 1031.9
20220125040239 44 273 0.0 0.0 0.00 0.00 0.00 84 1031.9
20220125035740 44 232 0.0 0.0 0.00 0.00 0.00 84 1032.0
20220125035240 44 157 0.0 0.0 0.00 0.00 0.00 84 1032.0
20220125034740 44 155 0.0 0.0 0.00 0.00 0.00 84 1032.0
20220125034239 44 155 0.0 0.0 0.00 0.00 0.00 84 1032.0
20220125033740 44 283 0.0 0.0 0.00 0.00 0.00 84 1032.0
20220125033240 44 283 0.0 0.0 0.00 0.00 0.00 84 1032.0
20220125032740 44 130 0.0 0.0 0.00 0.00 0.00 84 1032.0
20220125032239 44 121 0.0 0.0 0.00 0.00 0.00 84 1031.9
20220125031741 44 119 0.0 0.0 0.00 0.00 0.00 84 1031.9
20220125031239 44 138 0.0 0.0 0.00 0.00 0.00 84 1031.8
20220125030740 44 120 0.0 0.0 0.00 0.00 0.00 84 1031.9
20220125030240 44 136 0.0 0.0 0.00 0.00 0.00 83 1031.8
20220125025740 44 116 0.0 0.0 0.00 0.00 0.00 83 1031.9
20220125025239 44 113 1.0 6.0 0.00 0.00 0.00 83 1031.9
20220125024741 44 119 1.0 5.0 0.00 0.00 0.00 83 1031.9
20220125024239 44 105 0.0 0.0 0.00 0.00 0.00 83 1031.9
20220125023739 45 105 0.0 2.0 0.00 0.00 0.00 83 1032.0
20220125023242 45 136 0.0 0.0 0.00 0.00 0.00 83 1032.0
20220125022741 44 135 0.0 0.0 0.00 0.00 0.00 83 1032.0
20220125022241 44 103 0.0 0.0 0.00 0.00 0.00 83 1032.0
20220125021742 44 115 0.0 0.0 0.00 0.00 0.00 83 1032.1
20220125021241 44 104 0.0 0.0 0.00 0.00 0.00 83 1032.1
20220125020739 44 104 0.0 0.0 0.00 0.00 0.00 83 1032.1
20220125020240 44 105 0.0 0.0 0.00 0.00 0.00 83 1032.1
20220125015740 44 111 0.0 0.0 0.00 0.00 0.00 83 1032.1
20220125015240 44 102 0.0 0.0 0.00 0.00 0.00 83 1032.1
20220125014741 44 117 0.0 5.0 0.00 0.00 0.00 83 1032.1
20220125014242 44 104 2.0 6.0 0.00 0.00 0.00 83 1032.1
20220125013741 44 100 1.0 5.0 0.00 0.00 0.00 82 1032.2
20220125013242 44 101 0.0 0.0 0.00 0.00 0.00 82 1032.2
20220125012740 44 101 0.0 0.0 0.00 0.00 0.00 82 1032.2
20220125012240 44 101 0.0 0.0 0.00 0.00 0.00 82 1032.2
20220125011741 44 101 0.0 0.0 0.00 0.00 0.00 82 1032.3
20220125011241 44 101 0.0 0.0 0.00 0.00 0.00 82 1032.3
20220125010741 44 101 0.0 0.0 0.00 0.00 0.00 82 1032.4
20220125010241 44 101 0.0 0.0 0.00 0.00 0.00 82 1032.4
20220125005741 44 100 0.0 0.0 0.00 0.00 0.00 83 1032.4
20220125005242 44 100 1.0 2.0 0.00 0.00 0.00 83 1032.4
20220125004740 44 123 2.0 6.0 0.00 0.00 0.00 82 1032.4
20220125004242 44 119 3.0 6.0 0.00 0.00 0.00 82 1032.4
20220125003740 44 121 2.0 6.0 0.00 0.00 0.00 83 1032.4
20220125003241 44 129 0.0 0.0 0.00 0.00 0.00 83 1032.4
20220125002742 44 122 0.0 0.0 0.00 0.00 0.00 83 1032.4
20220125002242 44 96 0.0 0.0 0.00 0.00 0.00 84 1032.4
20220125001742 44 95 0.0 0.0 0.00 0.00 0.00 84 1032.4
20220125001243 44 99 0.0 0.0 0.00 0.00 0.00 84 1032.3
20220125000806 44 125 0.0 0.0 0.00 0.00 0.00 84 1032.2
20220125000242 44 110 0.0 0.0 0.00 0.00 0.00 84 1032.2
20220124235741 44 125 0.0 0.0 0.00 0.00 0.00 84 1032.3
20220124235243 44 121 0.0 0.0 0.00 0.00 0.00 84 1032.3
20220124234741 44 121 0.0 0.0 0.00 0.00 0.00 84 1032.4
20220124234242 44 97 0.0 0.0 0.00 0.00 0.00 84 1032.3
20220124233742 44 91 0.0 0.0 0.00 0.00 0.00 84 1032.4
20220124233243 44 91 0.0 0.0 0.00 0.00 0.00 83 1032.4
20220124232743 44 98 0.0 0.0 0.00 0.00 0.00 83 1032.4
20220124232243 44 100 0.0 0.0 0.00 0.00 0.00 83 1032.4
20220124231743 44 100 0.0 0.0 0.00 0.00 0.00 83 1032.4
20220124231243 44 100 0.0 0.0 0.00 0.00 0.00 83 1032.3
20220124230741 44 100 0.0 0.0 0.00 0.00 0.00 83 1032.3
20220124230241 44 100 0.0 0.0 0.00 0.00 0.00 83 1032.3
20220124225742 44 100 0.0 0.0 0.00 0.00 0.00 83 1032.3
20220124225243 44 100 0.0 0.0 0.00 0.00 0.00 83 1032.3
20220124224741 44 100 0.0 0.0 0.00 0.00 0.00 83 1032.2
20220124224243 44 100 0.0 0.0 0.00 0.00 0.00 83 1032.2
20220124223742 44 105 0.0 0.0 0.00 0.00 0.00 82 1032.3
20220124223241 44 107 0.0 0.0 0.00 0.00 0.00 82 1032.3
20220124222742 44 104 0.0 0.0 0.00 0.00 0.00 82 1032.3
20220124222242 44 104 0.0 0.0 0.00 0.00 0.00 82 1032.3
20220124221742 44 104 0.0 0.0 0.00 0.00 0.00 82 1032.3
20220124221242 44 104 0.0 0.0 0.00 0.00 0.00 81 1032.3
20220124220744 45 104 0.0 0.0 0.00 0.00 0.00 81 1032.2
20220124220244 45 104 0.0 0.0 0.00 0.00 0.00 81 1032.3
20220124215743 45 104 0.0 0.0 0.00 0.00 0.00 81 1032.3
20220124215241 45 104 0.0 0.0 0.00 0.00 0.00 81 1032.3
20220124214743 45 104 0.0 0.0 0.00 0.00 0.00 81 1032.2
20220124214242 44 94 0.0 0.0 0.00 0.00 0.00 81 1032.2
20220124213743 44 94 0.0 0.0 0.00 0.00 0.00 81 1032.2
20220124213243 44 95 0.0 0.0 0.00 0.00 0.00 81 1032.2
20220124212745 45 100 0.0 0.0 0.00 0.00 0.00 80 1032.2
20220124212243 45 117 0.0 0.0 0.00 0.00 0.00 80 1032.2
20220124211742 45 136 0.0 0.0 0.00 0.00 0.00 80 1032.2
20220124211242 45 136 0.0 0.0 0.00 0.00 0.00 80 1032.3
20220124210742 45 136 0.0 0.0 0.00 0.00 0.00 80 1032.2
20220124210242 45 136 0.0 0.0 0.00 0.00 0.00 80 1032.2
20220124205744 45 125 0.0 0.0 0.00 0.00 0.00 80 1032.2
20220124205242 45 199 0.0 0.0 0.00 0.00 0.00 80 1032.2
20220124204743 45 197 0.0 5.0 0.00 0.00 0.00 80 1032.2
20220124204244 45 193 2.0 7.0 0.00 0.00 0.00 80 1032.2
20220124203744 45 192 3.0 8.0 0.00 0.00 0.00 81 1032.2
20220124203244 45 188 4.0 8.0 0.00 0.00 0.00 82 1032.2
20220124202742 44 188 3.0 8.0 0.00 0.00 0.00 83 1032.2
20220124202243 44 161 2.0 6.0 0.00 0.00 0.00 84 1032.1
20220124201743 44 128 0.0 0.0 0.00 0.00 0.00 84 1032.1
20220124201242 44 131 0.0 0.0 0.00 0.00 0.00 84 1032.1
20220124200745 45 139 0.0 0.0 0.00 0.00 0.00 84 1032.0
20220124200244 45 130 0.0 0.0 0.00 0.00 0.00 84 1032.0
20220124195743 45 115 0.0 0.0 0.00 0.00 0.00 84 1032.0
20220124195243 45 139 0.0 0.0 0.00 0.00 0.00 83 1032.0
20220124194744 45 153 0.0 0.0 0.00 0.00 0.00 83 1031.9
20220124194243 45 136 0.0 0.0 0.00 0.00 0.00 83 1031.9
20220124193743 45 133 0.0 0.0 0.00 0.00 0.00 83 1031.9
20220124193243 45 142 0.0 2.0 0.00 0.00 0.00 82 1031.8
20220124192743 45 132 0.0 7.0 0.00 0.00 0.00 82 1031.7
20220124192243 45 162 5.0 8.0 0.00 0.00 0.00 82 1031.6
20220124191745 45 129 5.0 8.0 0.00 0.00 0.00 82 1031.6
20220124191244 45 136 4.0 8.0 0.00 0.00 0.00 84 1031.6
20220124190745 45 174 3.0 6.0 0.00 0.00 0.00 84 1031.6
20220124190244 45 154 0.0 0.0 0.00 0.00 0.00 84 1031.6
20220124185744 45 145 1.0 5.0 0.00 0.00 0.00 84 1031.6
20220124185245 45 130 2.0 6.0 0.00 0.00 0.00 84 1031.6
20220124184744 45 107 0.0 0.0 0.00 0.00 0.00 84 1031.6
20220124184243 45 110 0.0 0.0 0.00 0.00 0.00 84 1031.5
20220124183743 45 142 0.0 0.0 0.00 0.00 0.00 84 1031.5
20220124183245 45 145 0.0 0.0 0.00 0.00 0.00 84 1031.3
20220124182743 45 120 0.0 0.0 0.00 0.00 0.00 84 1031.2
20220124182244 45 143 0.0 0.0 0.00 0.00 0.00 84 1031.1
20220124181743 45 163 0.0 5.0 0.00 0.00 0.00 84 1031.1
20220124181244 45 125 1.0 6.0 0.00 0.00 0.00 84 1031.0
20220124180744 45 154 0.0 0.0 0.00 0.00 0.00 84 1031.0
20220124180244 45 148 0.0 0.0 0.00 0.00 0.00 84 1031.0
20220124175744 45 153 0.0 2.0 0.00 0.00 0.00 84 1031.0
20220124175245 45 158 3.0 6.0 0.00 0.00 0.00 83 1030.9
20220124174744 45 161 2.0 6.0 0.00 0.00 0.00 83 1030.9
20220124174247 45 132 2.0 6.0 0.00 0.00 0.00 83 1030.8
20220124173744 45 133 4.0 6.0 0.00 0.00 0.00 82 1030.8
20220124173244 45 166 5.0 8.0 0.00 0.00 0.00 82 1030.9
20220124172744 45 139 3.0 6.0 0.00 0.00 0.00 83 1030.9
20220124172244 45 127 4.0 7.0 0.00 0.00 0.00 83 1030.9
20220124171745 45 142 5.0 8.0 0.00 0.00 0.00 83 1030.9
20220124171244 45 165 6.0 9.0 0.00 0.00 0.00 84 1031.0
20220124170744 45 120 3.0 8.0 0.00 0.00 0.00 84 1031.0
20220124170245 45 129 2.0 6.0 0.00 0.00 0.00 84 1031.1
20220124165744 45 135 2.0 6.0 0.00 0.00 0.00 84 1031.1
20220124165246 45 137 2.0 5.0 0.00 0.00 0.00 84 1031.0
20220124164749 45 137 3.0 6.0 0.00 0.00 0.00 84 1031.0
20220124164246 45 134 3.0 6.0 0.00 0.00 0.00 84 1031.1
20220124163746 45 111 1.0 5.0 0.00 0.00 0.00 84 1031.1
20220124163252 45 116 0.0 0.0 0.00 0.00 0.00 84 1031.1
20220124162745 45 121 0.0 2.0 0.00 0.00 0.00 84 1031.1
20220124162245 45 106 0.0 2.0 0.00 0.00 0.00 84 1031.1
20220124161744 45 133 2.0 6.0 0.00 0.00 0.00 84 1031.0
20220124161247 45 124 2.0 6.0 0.00 0.00 0.00 84 1031.0
20220124160745 45 118 2.0 5.0 0.00 0.00 0.00 84 1031.0
20220124160245 45 135 0.0 5.0 0.00 0.00 0.00 84 1031.0
20220124155744 45 130 2.0 6.0 0.00 0.00 0.00 84 1030.9
20220124155245 45 148 0.0 5.0 0.00 0.00 0.00 84 1030.9
20220124154745 45 126 3.0 6.0 0.00 0.00 0.00 84 1030.9
20220124154245 45 131 3.0 6.0 0.00 0.00 0.00 84 1030.8
20220124153744 45 130 4.0 7.0 0.00 0.00 0.00 84 1030.7
20220124153245 45 142 4.0 12.0 0.00 0.00 0.00 83 1030.7
20220124152745 45 130 5.0 8.0 0.00 0.00 0.00 83 1030.8
20220124152246 45 123 5.0 8.0 0.00 0.00 0.00 83 1030.9
20220124151747 45 127 5.0 8.0 0.00 0.00 0.00 83 1030.9
20220124151246 45 125 4.0 8.0 0.00 0.00 0.00 83 1030.8
20220124150747 45 121 4.0 9.0 0.00 0.00 0.00 83 1030.7
20220124150245 45 132 5.0 8.0 0.00 0.00 0.00 84 1030.7
20220124145745 45 121 2.0 7.0 0.00 0.00 0.00 84 1030.8
20220124145245 45 123 2.0 7.0 0.00 0.00 0.00 84 1030.8
20220124144745 45 121 2.0 6.0 0.00 0.00 0.00 84 1030.9
20220124144246 45 131 3.0 8.0 0.00 0.00 0.00 84 1030.9
20220124143746 45 112 2.0 6.0 0.00 0.00 0.00 84 1031.0
20220124143246 45 131 5.0 7.0 0.00 0.00 0.00 84 1030.9
20220124142746 45 126 4.0 8.0 0.00 0.00 0.00 84 1031.0
20220124142245 45 133 2.0 6.0 0.00 0.00 0.00 84 1030.9
20220124141745 45 131 2.0 6.0 0.00 0.00 0.00 83 1030.9
20220124141245 45 144 3.0 6.0 0.00 0.00 0.00 83 1030.9
20220124140745 45 103 2.0 6.0 0.00 0.00 0.00 83 1030.9
20220124140246 45 127 5.0 7.0 0.00 0.00 0.00 83 1030.9
20220124135747 45 157 4.0 7.0 0.00 0.00 0.00 83 1031.0
20220124135246 45 170 4.0 8.0 0.00 0.00 0.00 84 1031.0
20220124134746 45 162 2.0 7.0 0.00 0.00 0.00 84 1031.0
20220124134246 45 147 4.0 7.0 0.00 0.00 0.00 84 1031.1
20220124133746 45 135 3.0 6.0 0.00 0.00 0.00 85 1031.1
20220124133246 45 154 3.0 6.0 0.00 0.00 0.00 85 1031.1
20220124132746 45 155 4.0 7.0 0.00 0.00 0.00 85 1031.1
20220124132246 45 132 3.0 8.0 0.00 0.00 0.00 84 1031.2
20220124131746 45 141 5.0 8.0 0.00 0.00 0.00 84 1031.2
20220124131246 45 135 5.0 8.0 0.00 0.00 0.00 84 1031.2
20220124130746 45 145 7.0 12.0 0.00 0.00 0.00 84 1031.2
20220124130246 45 143 7.0 12.0 0.00 0.00 0.00 84 1031.2
20220124125747 45 127 6.0 9.0 0.00 0.00 0.00 84 1031.3
20220124125248 45 122 7.0 12.0 0.00 0.00 0.00 84 1031.3
20220124124746 45 137 7.0 9.0 0.00 0.00 0.00 84 1031.4
20220124124246 45 132 6.0 9.0 0.00 0.00 0.00 84 1031.5
20220124123746 45 156 6.0 9.0 0.00 0.00 0.00 84 1031.5
20220124123247 45 163 6.0 8.0 0.00 0.00 0.00 84 1031.5
20220124122747 45 150 7.0 9.0 0.00 0.00 0.00 84 1031.6
20220124122247 45 143 5.0 8.0 0.00 0.00 0.00 84 1031.6
20220124121746 45 156 5.0 12.0 0.00 0.00 0.00 85 1031.6
20220124121247 45 136 6.0 8.0 0.00 0.00 0.00 85 1031.6
20220124120748 45 159 5.0 12.0 0.00 0.00 0.00 85 1031.7
20220124120246 45 129 7.0 12.0 0.00 0.00 0.00 85 1031.6